FENGYUN 1C DEB

Satellite information

Favourite Embed

Satellite Type and Status

DEBRISIN ORBIT

Key statistics

Satellite FENGYUN 1C DEB at a glance.

Uptime

9495

Days in orbit

Revolutions

≈ 14.3

Per day

Orbit

SSO

Sun Synchronous Orbit

Inclination

98.9

Latest

Satellite identification and parameters

Extended collection of information and parameters for FENGYUN 1C DEB.

Object identification

Identified? True

Debris? True

Object name: FENGYUN 1C DEB

International designator: 1999-025BDX

Object number (NORAD): 31029

Object ID (CCSDS): 31029

Country: PEOPLES REPUBLIC OF CHINA (PRC)

Current information (Y/N): Y

RCS size: SMALL

Orbital parameters

Period: 100.429 minutes

Inclination: 98.8806 deg

SMA: 7157.009 km

Apoapsis: 843.207 km

Periapsis: 714.541 km

RAAN: 19.0053 deg

Eccentricy: 0.0089888

Argument of periapsis: 357.5392 deg

Mean anomaly: 56.7303 deg

Mean motion: 14.33855685 rev/day

Mean motion (dot): 0.00001226 rev/day2

B* drag term: 0.0004372 1/REarth

Two-line elements (TLE)

Creation date: May 8, 2025, 3:01 a.m.

Reference frame: TEME

Reference center: EARTH

Epoch: May 7, 2025, 3:51 p.m. UTC

TLE line 0: 0 FENGYUN 1C DEB

TLE line 1: 1 31029U 99025BDX 25127.66108200 .00001226 00000-0 43720-3 0 9990

TLE line 2: 2 31029 98.8806 19.0053 0089888 357.5392 56.7303 14.33855685946561

Live tracking on map

Real-time ground track for satellite FENGYUN 1C DEB.

In-orbit conjunctions

A list of the most updated potential collisions computed for object FENGYUN 1C DEB.

Target Orbit TCA Probability of collision Miss distance Type
CZ-6A DEB LEO 2024-10-13 07:41:16 0.0004202365 189.0 (m) DEBRIS
CZ-6A DEB LEO 2024-10-07 08:11:15 0.001567861 203.0 (m) DEBRIS
COSMOS 841 LEO 2024-09-14 15:57:20 0.0003886361 100.0 (m) PAYLOAD

Associated space launch

Chinese polar orbiting meteorological satellite

FENGYUN 1C DEB was lifted into orbit during the mission ‘Long March 4B | Feng Yun 1C’, on board a Long March 4B space rocket.

The launch took place on May 10, 1999, 1:33 a.m. from Launch Complex 7.

For more information about the launch, click the button.

Launch to space Long March 4B | Feng Yun 1C
Long March 4B | Feng Yun 1C

Agency: N/A

Status: Launch Successful

Launch date: May 10, 1999, 1:33 a.m. UTC

Rocket: Long March 4B

Launch pad: Launch Complex 7

Location: Taiyuan Satellite Launch Center, People's Republic of China

...

Latest news about this satellite

There are no fresh news available about this satellite. Check back as we update our databases every day.


Newsletter sign-up

Weekly statistics, charts and insights to help you stay on top of the space industry.